CW9669 Weather Reports


Display with metric or nautical units.
time (UTC)temp
F
wind
direction
speed
MPH
gust
MPH
rain 1hr
in
rain 24hr
in
rain mn
in
humidity
%
barometer
mb
20260506004621 67 38 2.0 5.0 0.00 0.00 0.00 66 1013.4
20260506004108 67 290 2.0 8.0 0.00 0.00 0.00 67 1013.4
20260506003059 67 287 2.0 7.0 0.00 0.00 0.00 68 1013.5
20260506002058 67 298 2.0 5.0 0.00 0.00 0.00 67 1013.4
20260506000623 66 281 2.0 5.0 0.00 0.00 0.00 67 1013.5
20260505235622 66 295 2.0 5.0 0.00 0.00 0.00 69 1013.5
20260505234619 66 306 3.0 8.0 0.00 0.00 0.00 68 1013.5
20260505233619 66 321 2.0 6.0 0.00 0.00 0.00 68 1013.6
20260505232619 66 14 3.0 8.0 0.00 0.00 0.00 70 1013.7
20260505231620 65 67 2.0 6.0 0.00 0.00 0.00 70 1013.8
20260505230619 65 284 3.0 7.0 0.00 0.00 0.00 69 1013.9
20260505225620 65 315 3.0 8.0 0.00 0.00 0.00 70 1013.9
20260505224620 65 288 2.0 5.0 0.00 0.00 0.00 68 1013.9
20260505223620 65 348 3.0 8.0 0.00 0.00 0.00 69 1014.1
20260505223055 65 309 2.0 8.0 0.00 0.00 0.00 68 1014.2
20260505221616 65 327 0.0 5.0 0.00 0.00 0.00 67 1014.3
20260505220616 64 288 2.0 7.0 0.00 0.00 0.00 68 1014.4
20260505215618 64 271 1.0 4.0 0.00 0.00 0.00 69 1014.5
20260505214616 64 225 0.0 5.0 0.00 0.00 0.00 69 1014.4
20260505213616 63 322 1.0 4.0 0.00 0.00 0.00 71 1014.5
20260505212616 63 24 0.0 4.0 0.00 0.00 0.00 71 1014.7
20260505211617 62 300 2.0 4.0 0.00 0.00 0.00 71 1014.5
20260505210617 62 292 1.0 4.0 0.00 0.00 0.00 72 1014.8
20260505205615 62 298 1.0 5.0 0.00 0.00 0.00 71 1014.9
20260505204613 62 350 1.0 4.0 0.00 0.00 0.00 72 1014.9
20260505203616 62 296 1.0 4.0 0.00 0.00 0.00 71 1014.9
20260505202617 62 279 1.0 5.0 0.00 0.00 0.00 72 1014.9
20260505201620 61 309 1.0 4.0 0.00 0.00 0.00 72 1015.0
20260505200615 61 309 1.0 4.0 0.00 0.00 0.00 74 1015.0
20260505195618 60 24 1.0 4.0 0.00 0.00 0.00 74 1015.1
20260505194612 60 298 1.0 4.0 0.00 0.00 0.00 74 1015.1
20260505194117 60 267 1.0 5.0 0.00 0.00 0.00 73 1015.1
20260505192611 60 264 1.0 4.0 0.00 0.00 0.00 74 1015.1
20260505191612 60 223 0.0 1.0 0.00 0.00 0.00 75 1015.1
20260505190611 59 101 1.0 3.0 0.00 0.00 0.00 76 1015.1
20260505185613 59 232 1.0 3.0 0.00 0.00 0.00 76 1015.1
20260505184612 59 222 0.0 1.0 0.00 0.00 0.00 76 1015.0
20260505183611 59 227 1.0 4.0 0.00 0.00 0.00 76 1015.1
20260505182612 59 214 0.0 2.0 0.00 0.00 0.00 76 1015.0
20260505181603 58 188 0.0 2.0 0.00 0.00 0.00 76 1014.9
20260505180604 58 141 0.0 1.0 0.00 0.00 0.00 77 1014.9
20260505175605 58 225 0.0 2.0 0.00 0.00 0.00 76 1014.9
20260505174604 58 138 0.0 1.0 0.00 0.00 0.00 78 1014.8
20260505173606 57 342 0.0 2.0 0.00 0.00 0.00 78 1014.8
20260505172607 57 288 0.0 2.0 0.00 0.00 0.00 77 1014.8
20260505171604 57 276 0.0 2.0 0.00 0.00 0.00 78 1014.7
20260505170603 57 216 0.0 3.0 0.00 0.00 0.00 77 1014.7
20260505165605 57 342 0.0 2.0 0.00 0.00 0.00 79 1014.7
20260505164605 57 331 0.0 2.0 0.00 0.00 0.00 78 1014.7
20260505163605 57 290 0.0 0.0 0.00 0.00 0.00 80 1014.8
20260505162609 56 311 0.0 0.0 0.00 0.00 0.00 81 1014.8
20260505161607 56 311 0.0 2.0 0.00 0.00 0.00 81 1014.8
20260505160606 56 230 0.0 1.0 0.00 0.00 0.00 82 1014.8
20260505152555 55 213 0.0 2.0 0.00 0.00 0.00 83 1014.8
20260505151553 55 307 0.0 1.0 0.00 0.00 0.00 83 1014.7
20260505150555 55 211 0.0 1.0 0.00 0.00 0.00 84 1014.5
20260505140553 54 330 0.0 1.0 0.00 0.00 0.00 85 1014.4
20260505124549 54 267 0.0 0.0 0.00 0.00 0.00 86 1013.8
20260505123549 54 267 0.0 1.0 0.00 0.00 0.00 86 1013.7
20260505123029 54 261 0.0 1.0 0.00 0.00 0.00 86 1013.7
20260505121549 54 262 0.0 1.0 0.00 0.00 0.00 86 1013.5
20260505120549 54 261 0.0 3.0 0.00 0.00 0.00 86 1013.4
20260505120028 54 331 0.0 1.0 0.00 0.00 0.00 86 1013.5
20260505114549 54 9 0.0 1.0 0.00 0.00 0.00 87 1013.5
20260505113550 54 26 0.0 0.0 0.00 0.00 0.00 87 1013.5
20260505112550 54 297 0.0 1.0 0.00 0.00 0.00 87 1013.6
20260505111552 54 297 0.0 1.0 0.00 0.00 0.00 87 1013.7
20260505110545 53 297 0.0 1.0 0.00 0.00 0.00 87 1013.7
20260505101533 53 303 0.0 2.0 0.00 0.00 0.00 89 1013.4
20260505100533 54 235 0.0 1.0 0.00 0.00 0.00 89 1013.4
20260505095532 54 213 0.0 0.0 0.00 0.00 0.00 89 1013.4
20260505094535 54 213 0.0 1.0 0.00 0.00 0.00 88 1013.3
20260505093533 54 219 0.0 1.0 0.00 0.00 0.00 88 1013.3
20260505092533 54 305 0.0 0.0 0.00 0.00 0.00 87 1013.3
20260505091534 54 327 0.0 2.0 0.00 0.00 0.00 87 1013.1
20260505090534 54 296 1.0 3.0 0.00 0.00 0.00 87 1013.1
20260505085534 54 259 0.0 3.0 0.00 0.00 0.00 86 1013.1
20260505084533 54 300 0.0 2.0 0.00 0.00 0.00 86 1013.3
20260505083537 54 211 0.0 2.0 0.00 0.00 0.00 87 1013.2
20260505082536 54 319 0.0 2.0 0.00 0.00 0.00 87 1013.3
20260505081533 54 17 0.0 2.0 0.00 0.00 0.00 87 1013.3
20260505080532 54 233 0.0 2.0 0.00 0.00 0.00 87 1013.4
20260505075531 54 241 0.0 2.0 0.00 0.00 0.00 87 1013.5
20260505074531 55 208 0.0 3.0 0.00 0.00 0.00 86 1013.5
20260505074005 55 213 0.0 4.0 0.00 0.00 0.00 85 1013.5
20260505073733 55 238 1.0 5.0 0.00 0.00 0.00 86 1013.5
20260505072015 55 325 0.0 0.0 0.00 0.00 0.00 84 1013.5
20260505071301 56 294 0.0 2.0 0.00 0.00 0.00 83 1013.3
20260505071105 55 325 0.0 3.0 0.00 0.00 0.00 83 1013.3
20260505064536 56 317 1.0 5.0 0.00 0.00 0.00 83 1013.3
20260505063534 56 320 1.0 3.0 0.00 0.00 0.00 83 1013.2
20260505062530 56 15 1.0 3.0 0.00 0.00 0.00 82 1013.2
20260505061531 56 319 0.0 4.0 0.00 0.00 0.00 82 1013.2
20260505060532 56 314 0.0 2.0 0.00 0.00 0.00 82 1013.1
20260505055531 56 202 1.0 2.0 0.00 0.00 0.00 82 1013.2
20260505055453 56 303 1.0 3.0 0.00 0.00 0.00 82 1013.1
20260505053531 57 306 1.0 5.0 0.00 0.00 0.00 82 1012.9
20260505053013 57 288 1.0 4.0 0.00 0.00 0.00 82 1012.9
20260505051528 57 297 0.0 2.0 0.00 0.00 0.00 82 1012.9
20260505050528 57 293 1.0 4.0 0.00 0.00 0.00 81 1012.8
20260505041529 57 300 1.0 4.0 0.00 0.00 0.00 82 1012.3
20260505040526 57 298 0.0 2.0 0.00 0.00 0.00 82 1012.2
20260505035530 57 290 1.0 5.0 0.00 0.00 0.00 81 1012.1
20260505035432 57 32 1.0 4.0 0.00 0.00 0.00 81 1012.0
20260505033529 58 296 0.0 2.0 0.00 0.00 0.00 80 1011.9
20260505032528 58 261 1.0 4.0 0.00 0.00 0.00 79 1011.9
20260505031542 59 324 1.0 4.0 0.00 0.00 0.00 78 1011.6
20260505031041 59 340 1.0 3.0 0.00 0.00 0.00 77 1011.5
20260505025532 60 273 0.0 4.0 0.00 0.00 0.00 76 1011.3
20260505024521 61 281 1.0 4.0 0.00 0.00 0.00 75 1011.1
20260505023525 61 315 2.0 5.0 0.00 0.00 0.00 74 1011.0
20260505022523 62 294 2.0 5.0 0.00 0.00 0.00 73 1010.8
20260505021531 63 331 2.0 8.0 0.00 0.00 0.00 72 1010.8
20260505020526 63 258 2.0 7.0 0.00 0.00 0.00 71 1010.7
20260505015524 64 288 2.0 10.0 0.00 0.00 0.00 70 1010.7
20260505014527 65 281 2.0 10.0 0.00 0.00 0.00 69 1010.8
20260505013532 65 304 2.0 9.0 0.00 0.00 0.00 69 1010.7
20260505012533 65 273 3.0 10.0 0.00 0.00 0.00 68 1010.7
20260505011525 66 313 3.0 10.0 0.00 0.00 0.00 66 1010.8
20260505010525 67 310 3.0 10.0 0.00 0.00 0.00 67 1010.8
20260505010008 67 304 4.0 12.0 0.00 0.00 0.00 66 1010.9